| time (UTC) | temp C | wind direction | speed KPH | gust KPH | rain 1hr cm | rain 24hr cm | rain mn cm | humidity % | barometer mb |
| 20260503224510 | 14 | 219 | 11.3 | 38.6 | 0.00 | 0.00 | 0.00 | 42 | 1005.9 |
| 20260503223012 | 15 | 189 | 12.9 | 29.0 | 0.00 | 0.00 | 0.00 | 41 | 1005.9 |
| 20260503221510 | 15 | 194 | 17.7 | 29.0 | 0.00 | 0.00 | 0.00 | 42 | 1006.0 |
| 20260503220026 | 15 | 207 | 12.9 | 29.0 | 0.00 | 0.00 | 0.00 | 43 | 1006.0 |
| 20260503214524 | 15 | 207 | 20.9 | 41.8 | 0.00 | 0.00 | 0.00 | 40 | 1006.1 |
| 20260503213021 | 15 | 192 | 12.9 | 27.4 | 0.00 | 0.00 | 0.00 | 42 | 1006.1 |
| 20260503211516 | 15 | 250 | 12.9 | 43.5 | 0.00 | 0.00 | 0.00 | 41 | 1006.2 |
| 20260503210016 | 16 | 232 | 14.5 | 33.8 | 0.00 | 0.00 | 0.00 | 38 | 1006.2 |
| 20260503204516 | 15 | 191 | 14.5 | 32.2 | 0.00 | 0.00 | 0.00 | 41 | 1006.4 |
| 20260503203035 | 15 | 251 | 11.3 | 41.8 | 0.00 | 0.00 | 0.00 | 41 | 1006.5 |
| 20260503201510 | 15 | 178 | 14.5 | 27.4 | 0.00 | 0.00 | 0.00 | 42 | 1006.6 |
| 20260503200009 | 15 | 207 | 14.5 | 35.4 | 0.00 | 0.00 | 0.00 | 43 | 1006.8 |
| 20260503194526 | 15 | 190 | 19.3 | 30.6 | 0.00 | 0.00 | 0.00 | 44 | 1007.0 |
| 20260503193027 | 16 | 200 | 12.9 | 33.8 | 0.00 | 0.00 | 0.00 | 44 | 1007.2 |
| 20260503191522 | 15 | 216 | 12.9 | 38.6 | 0.00 | 0.00 | 0.00 | 44 | 1007.6 |
| 20260503190034 | 15 | 221 | 9.7 | 35.4 | 0.00 | 0.00 | 0.00 | 41 | 1007.8 |
| 20260503184524 | 15 | 179 | 14.5 | 30.6 | 0.00 | 0.00 | 0.00 | 43 | 1007.9 |
| 20260503183023 | 15 | 225 | 12.9 | 32.2 | 0.00 | 0.00 | 0.00 | 45 | 1008.1 |
| 20260503181519 | 15 | 221 | 9.7 | 32.2 | 0.00 | 0.00 | 0.00 | 44 | 1008.2 |
| 20260503180014 | 15 | 254 | 11.3 | 29.0 | 0.00 | 0.00 | 0.00 | 42 | 1008.5 |
| 20260503174516 | 14 | 190 | 12.9 | 29.0 | 0.00 | 0.00 | 0.00 | 46 | 1008.6 |
| 20260503173011 | 15 | 190 | 17.7 | 27.4 | 0.00 | 0.00 | 0.00 | 48 | 1008.8 |
| 20260503171511 | 15 | 271 | 9.7 | 24.1 | 0.00 | 0.00 | 0.00 | 49 | 1009.1 |
| 20260503081527 | 2 | 200 | 3.2 | 6.4 | 0.00 | 0.18 | 0.00 | 77 | 1010.4 |
| 20260503071513 | 2 | 192 | 4.8 | 11.3 | 0.00 | 0.23 | 0.00 | 80 | 1010.3 |
| 20260503054526 | 3 | 212 | 0.0 | 4.8 | 0.00 | 0.33 | 0.00 | 83 | 1010.7 |
| 20260503053029 | 3 | 198 | 1.6 | 6.4 | 0.00 | 0.33 | 0.00 | 83 | 1010.8 |
| 20260503051521 | 3 | 200 | 1.6 | 4.8 | 0.00 | 0.33 | 0.00 | 83 | 1010.8 |
| 20260503050016 | 3 | 181 | 1.6 | 3.2 | 0.00 | 0.33 | 0.00 | 82 | 1010.8 |
| 20260503044510 | 3 | 182 | 3.2 | 6.4 | 0.00 | 0.33 | 0.00 | 82 | 1010.8 |
| 20260503043016 | 3 | 189 | 1.6 | 4.8 | 0.00 | 0.33 | 0.00 | 81 | 1010.8 |
| 20260503041508 | 4 | 200 | 0.0 | 4.8 | 0.00 | 0.33 | 0.00 | 80 | 1010.8 |
| 20260503040009 | 5 | 182 | 1.6 | 4.8 | 0.00 | 0.36 | 0.33 | 79 | 1010.9 |
| 20260503034524 | 5 | 173 | 1.6 | 6.4 | 0.00 | 0.36 | 0.33 | 78 | 1011.0 |
| 20260503033027 | 5 | 182 | 3.2 | 6.4 | 0.00 | 0.36 | 0.33 | 78 | 1011.1 |
| 20260503031521 | 5 | 186 | 4.8 | 9.7 | 0.00 | 0.36 | 0.33 | 76 | 1011.1 |
| 20260503030024 | 5 | 190 | 3.2 | 8.0 | 0.00 | 0.58 | 0.33 | 76 | 1011.2 |
| 20260503024518 | 5 | 192 | 3.2 | 9.7 | 0.00 | 0.58 | 0.33 | 77 | 1011.2 |
| 20260503023020 | 5 | 181 | 3.2 | 8.0 | 0.00 | 0.58 | 0.33 | 77 | 1011.4 |
| 20260503021515 | 5 | 193 | 4.8 | 6.4 | 0.00 | 0.58 | 0.33 | 76 | 1011.4 |
| 20260503020013 | 5 | 202 | 3.2 | 9.7 | 0.00 | 0.58 | 0.33 | 77 | 1011.4 |
| 20260503014510 | 5 | 192 | 3.2 | 4.8 | 0.00 | 0.58 | 0.33 | 78 | 1011.3 |
| 20260503013010 | 5 | 167 | 1.6 | 8.0 | 0.00 | 0.58 | 0.33 | 76 | 1011.2 |
| 20260503011515 | 5 | 182 | 1.6 | 4.8 | 0.00 | 0.58 | 0.33 | 76 | 1011.2 |
| 20260503010029 | 5 | 201 | 0.0 | 3.2 | 0.00 | 0.58 | 0.33 | 75 | 1011.2 |
| 20260503004519 | 5 | 264 | 0.0 | 3.2 | 0.00 | 0.58 | 0.33 | 73 | 1011.1 |
| 20260503003022 | 5 | 278 | 0.0 | 3.2 | 0.00 | 0.58 | 0.33 | 75 | 1011.0 |
| 20260503001515 | 6 | 229 | 0.0 | 3.2 | 0.00 | 0.58 | 0.33 | 73 | 1011.1 |
| 20260503000015 | 6 | 229 | 0.0 | 3.2 | 0.00 | 0.58 | 0.33 | 67 | 1011.0 |
| 20260502234522 | 6 | 229 | 0.0 | 3.2 | 0.00 | 0.58 | 0.33 | 63 | 1011.0 |
| 20260502233011 | 6 | 249 | 0.0 | 3.2 | 0.00 | 0.58 | 0.33 | 62 | 1010.9 |
| 20260502231510 | 6 | 273 | 0.0 | 3.2 | 0.00 | 0.58 | 0.33 | 60 | 1011.0 |
| 20260502230025 | 6 | 265 | 1.6 | 4.8 | 0.00 | 0.58 | 0.33 | 61 | 1011.0 |